User: anonymous   Login
Location: Charleston
(38.3500°N, 81.6330°W)
Time: 01:30:56
(UTC-04:00)
Language:

Cosmos 2228 - Orbit

View from above orbital plane
View from above orbital plane
View from above satellite
View from above satellite

Ground track
Ground track

The orbit data is extracted from the following two-line orbital elements,

1 22286U 92094A   16212.79226409  .00000185  00000-0  17515-4 0  9992
2 22286  82.5234 317.0749 0022180 107.4231 252.9414 14.87487378274713
Epoch (UTC): 30 July 2016 19:00:51
Eccentricity: 0.0022180
inclination: 82.5234°
perigee height: 590 km
apogee height: 621 km
right ascension of ascending node: 317.0749°
argument of perigee: 107.4231°
revolutions per day: 14.87487378
mean anomaly at epoch: 252.9414°
orbit number at epoch: 27471

The dashed part of the orbit path shows where the satellite is in the earth's shadow,  

DLR